Time,TemperatureF,DewpointF,PressureIn,WindDirection,WindDirectionDegrees,WindSpeedMPH,WindSpeedGustMPH,Humidity,HourlyPrecipIn,Conditions,Clouds,dailyrainin,SoftwareType,DateUTC
2014-10-01 00:06:00,76.8,75.6,29.80,North,5,0.0,0.0,96,0.00,,,0.00,Wunderground v.1.15,2014-10-01 04:06:00,
2014-10-01 00:15:00,76.7,75.5,29.79,North,5,0.0,0.0,96,0.00,,,0.00,Wunderground v.1.15,2014-10-01 04:15:00,
2014-10-01 00:25:00,76.7,75.5,29.79,North,5,0.0,0.0,96,0.00,,,0.00,Wunderground v.1.15,2014-10-01 04:25:00,
2014-10-01 00:31:00,76.7,75.5,29.79,North,5,0.0,0.0,96,0.00,,,0.00,Wunderground v.1.15,2014-10-01 04:31:00,
2014-10-01 00:40:00,76.5,75.3,29.79,North,5,0.0,0.0,96,0.00,,,0.00,Wunderground v.1.15,2014-10-01 04:40:00,
2014-10-01 00:50:00,76.3,75.1,29.79,North,5,0.0,0.0,96,0.00,,,0.00,Wunderground v.1.15,2014-10-01 04:50:00,
2014-10-01 00:55:00,76.3,75.1,29.79,North,5,0.0,0.0,96,0.00,,,0.00,Wunderground v.1.15,2014-10-01 04:55:00,
2014-10-01 01:05:00,76.0,74.8,29.79,North,5,0.0,0.0,96,0.00,,,0.00,Wunderground v.1.15,2014-10-01 05:05:00,
2014-10-01 01:11:00,76.0,74.8,29.79,North,5,0.0,0.0,96,0.00,,,0.00,Wunderground v.1.15,2014-10-01 05:11:00,
2014-10-01 01:20:00,75.8,74.6,29.79,North,5,0.0,0.0,96,0.00,,,0.00,Wunderground v.1.15,2014-10-01 05:20:00,
2014-10-01 01:25:00,75.8,74.6,29.79,North,5,0.0,0.0,96,0.00,,,0.00,Wunderground v.1.15,2014-10-01 05:25:00,
2014-10-01 01:35:00,75.6,74.4,29.79,North,5,0.0,0.0,96,0.00,,,0.00,Wunderground v.1.15,2014-10-01 05:35:00,
2014-10-01 01:40:00,75.4,74.2,29.79,North,5,0.0,0.0,96,0.00,,,0.00,Wunderground v.1.15,2014-10-01 05:40:00,
2014-10-01 01:50:00,75.4,74.2,29.79,North,5,0.0,0.0,96,0.00,,,0.00,Wunderground v.1.15,2014-10-01 05:50:00,
2014-10-01 01:55:00,75.3,74.1,29.79,North,5,0.0,0.0,96,0.00,,,0.00,Wunderground v.1.15,2014-10-01 05:55:00,
2014-10-01 02:05:00,75.1,73.9,29.79,North,5,0.0,0.0,96,0.00,,,0.00,Wunderground v.1.15,2014-10-01 06:05:00,
2014-10-01 02:11:00,75.3,74.1,29.79,North,5,0.0,0.0,96,0.00,,,0.00,Wunderground v.1.15,2014-10-01 06:11:00,
2014-10-01 02:20:00,75.1,73.9,29.79,North,5,0.0,0.0,96,0.00,,,0.00,Wunderground v.1.15,2014-10-01 06:20:00,
2014-10-01 02:30:00,75.1,73.9,29.79,North,5,0.0,0.0,96,0.00,,,0.00,Wunderground v.1.15,2014-10-01 06:30:00,
2014-10-01 02:40:00,75.1,73.9,29.79,North,5,0.0,0.0,96,0.00,,,0.00,Wunderground v.1.15,2014-10-01 06:40:00,
2014-10-01 02:50:00,74.9,73.7,29.80,North,5,0.0,0.0,96,0.00,,,0.00,Wunderground v.1.15,2014-10-01 06:50:00,
2014-10-01 02:55:00,74.9,73.7,29.80,North,5,0.0,0.0,96,0.00,,,0.00,Wunderground v.1.15,2014-10-01 06:55:00,
2014-10-01 03:05:00,74.6,73.4,29.79,North,5,0.0,0.0,96,0.00,,,0.01,Wunderground v.1.15,2014-10-01 07:05:00,
2014-10-01 03:10:00,74.6,73.4,29.79,North,5,0.0,0.0,96,0.00,,,0.01,Wunderground v.1.15,2014-10-01 07:10:00,
2014-10-01 03:15:00,74.6,73.4,29.79,North,5,0.0,0.0,96,0.00,,,0.01,Wunderground v.1.15,2014-10-01 07:15:00,
2014-10-01 03:25:00,74.7,73.5,29.79,North,5,0.0,0.0,96,0.00,,,0.01,Wunderground v.1.15,2014-10-01 07:25:00,
2014-10-01 03:30:00,74.7,73.5,29.78,North,5,0.0,0.0,96,0.00,,,0.01,Wunderground v.1.15,2014-10-01 07:30:00,
2014-10-01 03:40:00,74.6,73.4,29.78,North,5,0.0,0.0,96,0.00,,,0.01,Wunderground v.1.15,2014-10-01 07:40:00,
2014-10-01 03:50:00,74.6,73.4,29.78,North,5,0.0,0.0,96,0.00,,,0.01,Wunderground v.1.15,2014-10-01 07:50:00,
2014-10-01 03:55:00,74.6,73.4,29.78,North,5,0.0,0.0,96,0.00,,,0.01,Wunderground v.1.15,2014-10-01 07:55:00,
2014-10-01 04:06:00,74.6,73.4,29.78,North,5,0.0,0.0,96,0.00,,,0.01,Wunderground v.1.15,2014-10-01 08:06:00,
2014-10-01 04:15:00,74.6,73.4,29.78,North,5,0.0,0.0,96,0.00,,,0.01,Wunderground v.1.15,2014-10-01 08:15:00,
2014-10-01 04:25:00,74.6,73.4,29.78,North,5,0.0,0.0,96,0.00,,,0.01,Wunderground v.1.15,2014-10-01 08:25:00,
2014-10-01 04:35:00,74.7,73.8,29.79,North,5,0.0,0.0,97,0.00,,,0.01,Wunderground v.1.15,2014-10-01 08:35:00,
2014-10-01 04:46:00,74.6,73.4,29.79,North,5,0.0,0.0,96,0.00,,,0.01,Wunderground v.1.15,2014-10-01 08:46:00,
2014-10-01 04:55:00,74.4,73.5,29.79,North,5,0.0,0.0,97,0.00,,,0.01,Wunderground v.1.15,2014-10-01 08:55:00,
2014-10-01 05:01:00,74.4,73.5,29.79,North,5,0.0,0.0,97,0.00,,,0.01,Wunderground v.1.15,2014-10-01 09:01:00,
2014-10-01 05:15:00,74.4,73.5,29.79,North,5,0.0,0.0,97,0.00,,,0.01,Wunderground v.1.15,2014-10-01 09:15:00,
2014-10-01 05:25:00,74.2,73.3,29.79,North,5,0.0,0.0,97,0.00,,,0.01,Wunderground v.1.15,2014-10-01 09:25:00,
2014-10-01 05:35:00,74.0,73.1,29.79,North,5,0.0,0.0,97,0.00,,,0.01,Wunderground v.1.15,2014-10-01 09:35:00,
2014-10-01 05:40:00,74.0,73.1,29.79,North,5,0.0,0.0,97,0.00,,,0.01,Wunderground v.1.15,2014-10-01 09:40:00,
2014-10-01 05:45:00,74.0,73.1,29.80,North,5,0.0,0.0,97,0.00,,,0.01,Wunderground v.1.15,2014-10-01 09:45:00,
2014-10-01 05:55:00,74.0,73.1,29.80,North,5,0.0,0.0,97,0.00,,,0.01,Wunderground v.1.15,2014-10-01 09:55:00,
2014-10-01 06:05:00,74.2,73.3,29.80,North,5,0.0,0.0,97,0.00,,,0.01,Wunderground v.1.15,2014-10-01 10:05:00,
2014-10-01 06:15:00,74.2,73.3,29.81,North,5,0.0,0.0,97,0.00,,,0.01,Wunderground v.1.15,2014-10-01 10:15:00,
2014-10-01 06:25:00,74.0,73.1,29.81,North,5,0.0,0.0,97,0.00,,,0.01,Wunderground v.1.15,2014-10-01 10:25:00,
2014-10-01 06:35:00,74.2,73.3,29.81,North,5,0.0,0.0,97,0.00,,,0.01,Wunderground v.1.15,2014-10-01 10:35:00,
2014-10-01 06:45:00,74.0,73.1,29.82,North,5,0.0,0.0,97,0.00,,,0.01,Wunderground v.1.15,2014-10-01 10:45:00,
2014-10-01 06:50:00,74.0,73.1,29.82,North,5,0.0,0.0,97,0.00,,,0.01,Wunderground v.1.15,2014-10-01 10:50:00,
2014-10-01 07:00:00,73.9,73.0,29.82,North,5,0.0,0.0,97,0.00,,,0.01,Wunderground v.1.15,2014-10-01 11:00:00,
2014-10-01 07:05:00,74.0,73.1,29.82,North,5,0.0,0.0,97,0.00,,,0.01,Wunderground v.1.15,2014-10-01 11:05:00,
2014-10-01 07:15:00,74.2,73.3,29.82,North,5,0.0,0.0,97,0.00,,,0.01,Wunderground v.1.15,2014-10-01 11:15:00,
2014-10-01 07:25:00,74.2,73.3,29.82,North,5,0.0,0.0,97,0.00,,,0.01,Wunderground v.1.15,2014-10-01 11:25:00,
2014-10-01 07:35:00,74.6,73.7,29.82,North,5,0.0,0.0,97,0.00,,,0.01,Wunderground v.1.15,2014-10-01 11:35:00,
2014-10-01 07:45:00,74.9,74.0,29.83,North,5,0.0,0.0,97,0.00,,,0.01,Wunderground v.1.15,2014-10-01 11:45:00,
2014-10-01 07:55:00,75.6,74.7,29.83,North,5,0.0,0.0,97,0.00,,,0.01,Wunderground v.1.15,2014-10-01 11:55:00,
2014-10-01 08:05:00,76.5,75.6,29.83,North,5,0.0,0.0,97,0.00,,,0.01,Wunderground v.1.15,2014-10-01 12:05:00,
2014-10-01 08:15:00,77.0,76.1,29.84,North,5,0.0,0.0,97,0.00,,,0.01,Wunderground v.1.15,2014-10-01 12:15:00,
2014-10-01 08:25:00,77.7,76.8,29.84,North,5,0.0,0.0,97,0.00,,,0.01,Wunderground v.1.15,2014-10-01 12:25:00,
2014-10-01 08:35:00,78.1,77.2,29.84,North,5,0.0,0.0,97,0.00,,,0.01,Wunderground v.1.15,2014-10-01 12:35:00,
2014-10-01 08:40:00,78.3,77.4,29.84,North,5,0.0,0.0,97,0.00,,,0.01,Wunderground v.1.15,2014-10-01 12:40:00,
2014-10-01 08:50:00,78.6,77.4,29.85,North,5,0.0,0.0,96,0.00,,,0.01,Wunderground v.1.15,2014-10-01 12:50:00,
2014-10-01 08:56:00,79.0,77.8,29.85,North,5,0.0,1.0,96,0.00,,,0.01,Wunderground v.1.15,2014-10-01 12:56:00,
2014-10-01 09:05:00,79.6,78.4,29.85,North,10,0.0,0.0,96,0.00,,,0.01,Wunderground v.1.15,2014-10-01 13:05:00,
2014-10-01 09:15:00,80.1,78.5,29.86,North,5,0.0,0.0,95,0.00,,,0.01,Wunderground v.1.15,2014-10-01 13:15:00,
2014-10-01 09:25:00,80.9,78.7,29.86,West,273,0.0,0.0,93,0.00,,,0.01,Wunderground v.1.15,2014-10-01 13:25:00,
2014-10-01 09:35:00,81.6,78.7,29.86,West,267,0.0,0.0,91,0.00,,,0.01,Wunderground v.1.15,2014-10-01 13:35:00,
2014-10-01 09:45:00,82.4,78.1,29.86,West,262,0.0,0.0,87,0.00,,,0.01,Wunderground v.1.15,2014-10-01 13:45:00,
2014-10-01 09:50:00,82.8,78.2,29.86,SSW,193,0.0,0.0,86,0.00,,,0.01,Wunderground v.1.15,2014-10-01 13:50:00,
2014-10-01 09:55:00,83.2,78.2,29.86,SSW,193,0.0,0.0,85,0.00,,,0.01,Wunderground v.1.15,2014-10-01 13:55:00,
2014-10-01 10:01:00,83.6,77.9,29.87,West,271,0.0,0.0,83,0.00,,,0.01,Wunderground v.1.15,2014-10-01 14:01:00,
2014-10-01 10:15:00,83.8,77.3,29.87,West,275,0.0,0.0,81,0.00,,,0.01,Wunderground v.1.15,2014-10-01 14:15:00,
2014-10-01 10:25:00,84.5,77.3,29.87,WSW,249,0.0,0.0,79,0.00,,,0.01,Wunderground v.1.15,2014-10-01 14:25:00,
2014-10-01 10:35:00,84.7,76.7,29.87,SSW,196,1.0,1.0,77,0.00,,,0.01,Wunderground v.1.15,2014-10-01 14:35:00,
2014-10-01 10:41:00,84.9,76.5,29.87,SSW,212,1.0,1.0,76,0.00,,,0.01,Wunderground v.1.15,2014-10-01 14:41:00,
2014-10-01 10:50:00,84.3,75.9,29.87,WSW,246,1.0,4.0,76,0.00,,,0.01,Wunderground v.1.15,2014-10-01 14:50:00,
2014-10-01 11:00:00,84.9,76.9,29.87,SW,224,1.0,1.0,77,0.00,,,0.01,Wunderground v.1.15,2014-10-01 15:00:00,
2014-10-01 11:05:00,85.5,76.3,29.87,SSE,165,1.0,2.0,74,0.00,,,0.01,Wunderground v.1.15,2014-10-01 15:05:00,
2014-10-01 11:10:00,85.9,75.8,29.87,NNW,336,1.0,1.0,72,0.00,,,0.01,Wunderground v.1.15,2014-10-01 15:10:00,
2014-10-01 11:20:00,86.3,76.6,29.87,WNW,296,0.0,1.0,73,0.00,,,0.01,Wunderground v.1.15,2014-10-01 15:20:00,
2014-10-01 11:30:00,86.7,76.6,29.86,West,273,0.0,0.0,72,0.00,,,0.01,Wunderground v.1.15,2014-10-01 15:30:00,
2014-10-01 11:36:00,87.4,76.0,29.86,WNW,296,1.0,1.0,69,0.00,,,0.01,Wunderground v.1.15,2014-10-01 15:36:00,
2014-10-01 11:45:00,87.6,75.7,29.86,SW,225,1.0,2.0,68,0.00,,,0.01,Wunderground v.1.15,2014-10-01 15:45:00,
2014-10-01 11:55:00,87.2,75.3,29.86,SW,221,2.0,2.0,68,0.00,,,0.01,Wunderground v.1.15,2014-10-01 15:55:00,
2014-10-01 12:05:00,85.5,76.3,29.86,SW,221,2.0,3.0,74,0.00,,,0.01,Wunderground v.1.15,2014-10-01 16:05:00,
2014-10-01 12:10:00,84.7,76.7,29.86,SW,220,1.0,1.0,77,0.00,,,0.01,Wunderground v.1.15,2014-10-01 16:10:00,
2014-10-01 12:15:00,84.7,76.3,29.86,SW,214,1.0,1.0,76,0.00,,,0.01,Wunderground v.1.15,2014-10-01 16:15:00,
2014-10-01 12:20:00,85.7,77.3,29.86,SSW,213,0.0,0.0,76,0.00,,,0.01,Wunderground v.1.15,2014-10-01 16:20:00,
2014-10-01 12:30:00,87.4,76.8,29.85,SSW,196,2.0,2.0,71,0.00,,,0.01,Wunderground v.1.15,2014-10-01 16:30:00,
2014-10-01 12:40:00,88.0,77.4,29.85,West,259,2.0,4.0,71,0.00,,,0.01,Wunderground v.1.15,2014-10-01 16:40:00,
2014-10-01 12:50:00,88.2,78.0,29.86,SW,225,2.0,2.0,72,0.00,,,0.01,Wunderground v.1.15,2014-10-01 16:50:00,
2014-10-01 13:00:00,84.9,76.9,29.86,West,273,2.0,2.0,77,1.66,,,0.08,Wunderground v.1.15,2014-10-01 17:00:00,
2014-10-01 13:15:00,80.7,77.2,29.85,SSW,203,1.0,1.0,89,0.04,,,0.12,Wunderground v.1.15,2014-10-01 17:15:00,
2014-10-01 13:25:00,82.0,77.4,29.85,SSW,213,1.0,1.0,86,0.00,,,0.12,Wunderground v.1.15,2014-10-01 17:25:00,
2014-10-01 13:30:00,82.6,77.3,29.84,WSW,241,0.0,1.0,84,0.00,,,0.12,Wunderground v.1.15,2014-10-01 17:30:00,
2014-10-01 13:40:00,83.2,77.5,29.84,SW,217,0.0,0.0,83,0.00,,,0.12,Wunderground v.1.15,2014-10-01 17:40:00,
2014-10-01 13:45:00,83.2,76.8,29.84,WSW,251,0.0,0.0,81,0.00,,,0.12,Wunderground v.1.15,2014-10-01 17:45:00,
2014-10-01 13:50:00,82.4,76.7,29.84,South,190,1.0,3.0,83,0.00,,,0.12,Wunderground v.1.15,2014-10-01 17:50:00,
2014-10-01 14:00:00,79.2,73.6,29.84,SE,136,2.0,2.0,83,0.00,,,0.12,Wunderground v.1.15,2014-10-01 18:00:00,
2014-10-01 14:15:00,75.8,73.0,29.83,WSW,240,1.0,1.0,91,0.14,,,0.35,Wunderground v.1.15,2014-10-01 18:15:00,
2014-10-01 14:26:00,76.1,73.9,29.83,WSW,240,0.0,0.0,93,0.04,,,0.35,Wunderground v.1.15,2014-10-01 18:26:00,
2014-10-01 14:35:00,77.2,75.3,29.82,WSW,240,0.0,0.0,94,0.00,,,0.35,Wunderground v.1.15,2014-10-01 18:35:00,
2014-10-01 14:41:00,78.1,76.2,29.82,SW,231,0.0,1.0,94,0.00,,,0.35,Wunderground v.1.15,2014-10-01 18:41:00,
2014-10-01 14:50:00,78.8,76.6,29.82,SW,229,0.0,2.0,93,0.00,,,0.35,Wunderground v.1.15,2014-10-01 18:50:00,
2014-10-01 15:00:00,80.7,77.8,29.82,South,184,0.0,0.0,91,0.00,,,0.35,Wunderground v.1.15,2014-10-01 19:00:00,
2014-10-01 15:05:00,81.6,78.0,29.82,SE,135,1.0,1.0,89,0.00,,,0.35,Wunderground v.1.15,2014-10-01 19:05:00,
2014-10-01 15:15:00,83.6,78.2,29.82,SSE,153,1.0,1.0,84,0.00,,,0.35,Wunderground v.1.15,2014-10-01 19:15:00,
2014-10-01 15:25:00,84.7,77.1,29.82,SSE,160,1.0,1.0,78,0.00,,,0.35,Wunderground v.1.15,2014-10-01 19:25:00,
2014-10-01 15:30:00,84.9,77.7,29.82,SSE,160,0.0,1.0,79,0.00,,,0.35,Wunderground v.1.15,2014-10-01 19:30:00,
2014-10-01 15:40:00,86.1,77.6,29.82,SSE,156,0.0,3.0,76,0.00,,,0.35,Wunderground v.1.15,2014-10-01 19:40:00,
2014-10-01 15:45:00,86.7,77.8,29.81,SSW,205,1.0,1.0,75,0.00,,,0.35,Wunderground v.1.15,2014-10-01 19:45:00,
2014-10-01 15:55:00,87.8,78.5,29.81,SE,141,1.0,1.0,74,0.00,,,0.35,Wunderground v.1.15,2014-10-01 19:55:00,
2014-10-01 16:00:00,88.4,78.2,29.80,SE,141,1.0,1.0,72,0.00,,,0.35,Wunderground v.1.15,2014-10-01 20:00:00,
2014-10-01 16:10:00,89.3,78.2,29.80,SE,136,1.0,1.0,70,0.00,,,0.35,Wunderground v.1.15,2014-10-01 20:10:00,
2014-10-01 16:16:00,89.7,77.7,29.80,SSW,198,1.0,1.0,68,0.00,,,0.35,Wunderground v.1.15,2014-10-01 20:16:00,
2014-10-01 16:20:00,89.5,77.5,29.80,SE,144,1.0,1.0,68,0.00,,,0.35,Wunderground v.1.15,2014-10-01 20:20:00,
2014-10-01 16:30:00,89.3,77.3,29.79,WSW,247,0.0,1.0,68,0.00,,,0.35,Wunderground v.1.15,2014-10-01 20:30:00,
2014-10-01 16:35:00,89.3,76.4,29.79,WSW,257,1.0,1.0,66,0.00,,,0.35,Wunderground v.1.15,2014-10-01 20:35:00,
2014-10-01 16:45:00,89.3,77.3,29.79,SSW,192,1.0,1.0,68,0.00,,,0.35,Wunderground v.1.15,2014-10-01 20:45:00,
2014-10-01 16:55:00,88.8,77.3,29.79,SSW,195,0.0,0.0,69,0.00,,,0.35,Wunderground v.1.15,2014-10-01 20:55:00,
2014-10-01 17:00:00,89.5,76.6,29.79,SSW,195,0.0,0.0,66,0.00,,,0.35,Wunderground v.1.15,2014-10-01 21:00:00,
2014-10-01 17:15:00,89.9,77.5,29.79,WSW,248,0.0,0.0,67,0.00,,,0.35,Wunderground v.1.15,2014-10-01 21:15:00,
2014-10-01 17:25:00,88.6,77.6,29.79,WSW,248,0.0,0.0,70,0.00,,,0.35,Wunderground v.1.15,2014-10-01 21:25:00,
2014-10-01 17:30:00,88.0,77.8,29.79,WSW,248,0.0,0.0,72,0.00,,,0.35,Wunderground v.1.15,2014-10-01 21:30:00,
2014-10-01 17:40:00,86.7,77.4,29.79,WSW,248,0.0,0.0,74,0.00,,,0.35,Wunderground v.1.15,2014-10-01 21:40:00,
2014-10-01 17:46:00,86.3,77.8,29.80,WSW,248,0.0,0.0,76,0.00,,,0.35,Wunderground v.1.15,2014-10-01 21:46:00,
2014-10-01 17:55:00,86.7,77.8,29.80,WSW,247,0.0,0.0,75,0.00,,,0.35,Wunderground v.1.15,2014-10-01 21:55:00,
2014-10-01 18:05:00,87.6,76.2,29.80,North,360,1.0,2.0,69,0.00,,,0.35,Wunderground v.1.15,2014-10-01 22:05:00,
2014-10-01 18:11:00,87.2,76.6,29.80,NE,42,1.0,1.0,71,0.00,,,0.35,Wunderground v.1.15,2014-10-01 22:11:00,
2014-10-01 18:20:00,86.7,75.7,29.81,North,5,1.0,2.0,70,0.00,,,0.35,Wunderground v.1.15,2014-10-01 22:20:00,
2014-10-01 18:30:00,84.9,74.4,29.81,NNE,29,1.0,2.0,71,0.00,,,0.35,Wunderground v.1.15,2014-10-01 22:30:00,
2014-10-01 18:36:00,84.0,75.6,29.81,NNE,29,0.0,0.0,76,0.00,,,0.35,Wunderground v.1.15,2014-10-01 22:36:00,
2014-10-01 18:45:00,83.4,74.2,29.82,NNE,29,0.0,0.0,74,0.00,,,0.35,Wunderground v.1.15,2014-10-01 22:45:00,
2014-10-01 18:55:00,83.6,75.6,29.82,NNE,29,0.0,0.0,77,0.00,,,0.35,Wunderground v.1.15,2014-10-01 22:55:00,
2014-10-01 19:05:00,83.6,75.6,29.82,NNE,32,0.0,0.0,77,0.00,,,0.35,Wunderground v.1.15,2014-10-01 23:05:00,
2014-10-01 19:10:00,83.4,75.4,29.82,NE,36,0.0,1.0,77,0.00,,,0.35,Wunderground v.1.15,2014-10-01 23:10:00,
2014-10-01 19:20:00,83.2,75.6,29.82,NE,45,0.0,0.0,78,0.00,,,0.35,Wunderground v.1.15,2014-10-01 23:20:00,
2014-10-01 19:25:00,83.2,75.6,29.82,NE,45,0.0,1.0,78,0.00,,,0.35,Wunderground v.1.15,2014-10-01 23:25:00,
2014-10-01 19:35:00,82.8,75.2,29.83,NE,47,0.0,0.0,78,0.00,,,0.35,Wunderground v.1.15,2014-10-01 23:35:00,
2014-10-01 19:40:00,82.4,75.2,29.83,NE,47,0.0,0.0,79,0.00,,,0.35,Wunderground v.1.15,2014-10-01 23:40:00,
2014-10-01 19:50:00,82.0,75.2,29.83,NE,49,0.0,0.0,80,0.00,,,0.35,Wunderground v.1.15,2014-10-01 23:50:00,
2014-10-01 19:56:00,82.0,75.6,29.83,NE,49,0.0,0.0,81,0.00,,,0.35,Wunderground v.1.15,2014-10-01 23:56:00,
2014-10-01 20:05:00,81.8,75.0,29.83,NE,49,0.0,0.0,80,0.00,,,0.35,Wunderground v.1.15,2014-10-02 00:05:00,
2014-10-01 20:15:00,81.4,75.4,29.84,NE,49,0.0,0.0,82,0.00,,,0.35,Wunderground v.1.15,2014-10-02 00:15:00,
2014-10-01 20:20:00,81.2,75.2,29.84,NE,49,0.0,0.0,82,0.00,,,0.35,Wunderground v.1.15,2014-10-02 00:20:00,
2014-10-01 20:30:00,80.7,74.7,29.85,South,184,0.0,1.0,82,0.00,,,0.35,Wunderground v.1.15,2014-10-02 00:30:00,
2014-10-01 20:35:00,80.7,74.7,29.85,South,181,0.0,0.0,82,0.00,,,0.35,Wunderground v.1.15,2014-10-02 00:35:00,
2014-10-01 20:45:00,80.5,74.5,29.85,SE,124,0.0,0.0,82,0.00,,,0.35,Wunderground v.1.15,2014-10-02 00:45:00,
2014-10-01 20:55:00,80.5,74.9,29.85,NNW,332,1.0,3.0,83,0.00,,,0.35,Wunderground v.1.15,2014-10-02 00:55:00,
2014-10-01 21:05:00,79.8,75.9,29.86,East,97,2.0,2.0,88,0.62,,,0.52,Wunderground v.1.15,2014-10-02 01:05:00,
2014-10-01 21:10:00,79.0,75.8,29.86,ESE,114,1.0,1.0,90,0.20,,,0.53,Wunderground v.1.15,2014-10-02 01:10:00,